Time,TemperatureF,DewpointF,PressureIn,WindDirection,WindDirectionDegrees,WindSpeedMPH,WindSpeedGustMPH,Humidity,HourlyPrecipIn,Conditions,Clouds,dailyrainin,SoftwareType,DateUTC
2013-01-17 00:03:00,9.3,-3.6,30.42,SSW,195,0.0,0.0,55,0.00,,---,0.00,VWS V14.01,2013-01-17 07:03:00,
2013-01-17 00:08:00,9.5,-3.4,30.42,SSW,196,0.0,0.0,55,0.00,,---,0.00,VWS V14.01,2013-01-17 07:08:00,
2013-01-17 00:13:00,9.5,-3.4,30.42,SSW,195,0.0,0.0,55,0.00,,---,0.00,VWS V14.01,2013-01-17 07:13:00,
2013-01-17 00:18:00,9.7,-3.2,30.42,SSW,206,0.0,0.0,55,0.00,,---,0.00,VWS V14.01,2013-01-17 07:18:00,
2013-01-17 00:23:00,9.9,-3.1,30.42,SSW,206,0.0,0.0,55,0.00,,---,0.00,VWS V14.01,2013-01-17 07:23:00,
2013-01-17 00:28:00,9.7,-3.2,30.42,SE,133,0.0,0.0,55,0.00,,---,0.00,VWS V14.01,2013-01-17 07:28:00,
2013-01-17 00:33:00,8.8,-4.1,30.42,SE,133,0.0,0.0,55,0.00,,---,0.00,VWS V14.01,2013-01-17 07:33:00,
2013-01-17 00:38:00,8.1,-4.8,30.42,SSW,197,0.0,0.0,55,0.00,,---,0.00,VWS V14.01,2013-01-17 07:38:00,
2013-01-17 00:43:00,8.1,-4.8,30.42,SSW,197,0.0,0.0,55,0.00,,---,0.00,VWS V14.01,2013-01-17 07:43:00,
2013-01-17 00:48:00,7.9,-4.9,30.42,SSW,197,0.0,0.0,55,0.00,,---,0.00,VWS V14.01,2013-01-17 07:48:00,
2013-01-17 00:53:00,7.9,-4.9,30.42,SSW,197,0.0,0.0,55,0.00,,---,0.00,VWS V14.01,2013-01-17 07:53:00,
2013-01-17 00:58:00,9.0,-3.9,30.45,SW,228,0.0,0.0,55,0.00,,---,0.00,VWS V14.01,2013-01-17 07:58:00,
2013-01-17 01:03:00,9.3,-3.6,30.45,SW,228,0.0,0.0,55,0.00,,---,0.00,VWS V14.01,2013-01-17 08:03:00,
2013-01-17 01:08:00,9.7,-3.2,30.45,SW,228,0.0,0.0,55,0.00,,---,0.00,VWS V14.01,2013-01-17 08:08:00,
2013-01-17 01:13:00,9.0,-3.9,30.45,SW,228,0.0,0.0,55,0.00,,---,0.00,VWS V14.01,2013-01-17 08:13:00,
2013-01-17 01:18:00,8.1,-4.8,30.45,SW,228,0.0,0.0,55,0.00,,---,0.00,VWS V14.01,2013-01-17 08:18:00,
2013-01-17 01:23:00,7.7,-5.1,30.45,SW,229,0.0,0.0,55,0.00,,---,0.00,VWS V14.01,2013-01-17 08:23:00,
2013-01-17 01:28:00,7.5,-5.3,30.45,SW,228,0.0,0.0,55,0.00,,---,0.00,VWS V14.01,2013-01-17 08:28:00,
2013-01-17 01:33:00,7.5,-5.3,30.45,SW,229,0.0,0.0,55,0.00,,---,0.00,VWS V14.01,2013-01-17 08:33:00,
2013-01-17 01:38:00,7.5,-5.3,30.45,SW,228,0.0,0.0,55,0.00,,---,0.00,VWS V14.01,2013-01-17 08:38:00,
2013-01-17 01:43:00,7.3,-5.4,30.45,SW,229,0.0,0.0,55,0.00,,---,0.00,VWS V14.01,2013-01-17 08:43:00,
2013-01-17 01:48:00,7.2,-5.6,30.45,SW,229,0.0,0.0,55,0.00,,---,0.00,VWS V14.01,2013-01-17 08:48:00,
2013-01-17 01:53:00,7.2,-5.6,30.42,WSW,253,0.0,0.0,55,0.00,,---,0.00,VWS V14.01,2013-01-17 08:53:00,
2013-01-17 01:58:00,7.5,-5.3,30.42,West,265,0.0,0.0,55,0.00,,---,0.00,VWS V14.01,2013-01-17 08:58:00,
2013-01-17 02:03:00,7.3,-5.4,30.42,ENE,60,0.0,3.6,55,0.00,,---,0.00,VWS V14.01,2013-01-17 09:03:00,
2013-01-17 02:08:00,7.2,-5.6,30.42,NW,312,0.0,3.6,55,0.00,,---,0.00,VWS V14.01,2013-01-17 09:08:00,
2013-01-17 02:13:00,7.2,-5.6,30.42,NW,312,0.0,3.6,55,0.00,,---,0.00,VWS V14.01,2013-01-17 09:13:00,
2013-01-17 02:18:00,6.8,-5.9,30.42,NW,312,0.0,0.0,55,0.00,,---,0.00,VWS V14.01,2013-01-17 09:18:00,
2013-01-17 02:23:00,7.0,-5.8,30.42,West,263,2.2,3.6,55,0.00,,---,0.00,VWS V14.01,2013-01-17 09:23:00,
2013-01-17 02:28:00,7.9,-4.9,30.42,West,264,0.0,3.6,55,0.00,,---,0.00,VWS V14.01,2013-01-17 09:28:00,
2013-01-17 02:33:00,8.4,-4.4,30.42,West,263,0.0,0.0,55,0.00,,---,0.00,VWS V14.01,2013-01-17 09:33:00,
2013-01-17 02:38:00,8.6,-4.2,30.42,SSW,196,0.0,0.0,55,0.00,,---,0.00,VWS V14.01,2013-01-17 09:38:00,
2013-01-17 02:43:00,8.8,-4.1,30.42,SSW,196,0.0,0.0,55,0.00,,---,0.00,VWS V14.01,2013-01-17 09:43:00,
2013-01-17 02:48:00,9.0,-3.9,30.42,WSW,242,0.0,0.0,55,0.00,,---,0.00,VWS V14.01,2013-01-17 09:48:00,
2013-01-17 02:53:00,9.1,-3.7,30.42,WSW,242,0.0,0.0,55,0.00,,---,0.00,VWS V14.01,2013-01-17 09:53:00,
2013-01-17 02:58:00,8.4,-4.4,30.42,WSW,242,0.0,0.0,55,0.00,,---,0.00,VWS V14.01,2013-01-17 09:58:00,
2013-01-17 03:03:00,7.7,-5.1,30.42,WSW,242,0.0,0.0,55,0.00,,---,0.00,VWS V14.01,2013-01-17 10:03:00,
2013-01-17 03:08:00,7.3,-5.4,30.42,WSW,242,0.0,0.0,55,0.00,,---,0.00,VWS V14.01,2013-01-17 10:08:00,
2013-01-17 03:13:00,7.2,-5.6,30.42,WNW,292,0.0,0.0,55,0.00,,---,0.00,VWS V14.01,2013-01-17 10:13:00,
2013-01-17 03:18:00,7.9,-4.9,30.42,NNW,344,0.0,0.0,55,0.00,,---,0.00,VWS V14.01,2013-01-17 10:18:00,
2013-01-17 03:23:00,8.6,-4.2,30.42,NW,313,0.0,0.0,55,0.00,,---,0.00,VWS V14.01,2013-01-17 10:23:00,
2013-01-17 03:28:00,9.0,-3.9,30.42,NW,313,0.0,0.0,55,0.00,,---,0.00,VWS V14.01,2013-01-17 10:28:00,
2013-01-17 03:33:00,8.6,-4.2,30.42,NW,311,0.0,0.0,55,0.00,,---,0.00,VWS V14.01,2013-01-17 10:33:00,
2013-01-17 03:38:00,8.2,-4.6,30.42,NW,311,0.0,0.0,55,0.00,,---,0.00,VWS V14.01,2013-01-17 10:38:00,
2013-01-17 03:43:00,7.9,-4.9,30.42,NW,311,0.0,0.0,55,0.00,,---,0.00,VWS V14.01,2013-01-17 10:43:00,
2013-01-17 03:48:00,7.5,-5.3,30.42,NW,311,0.0,0.0,55,0.00,,---,0.00,VWS V14.01,2013-01-17 10:48:00,
2013-01-17 03:53:00,7.7,-5.1,30.42,SW,226,0.0,0.0,55,0.00,,---,0.00,VWS V14.01,2013-01-17 10:53:00,
2013-01-17 03:58:00,8.1,-4.8,30.42,SW,226,0.0,0.0,55,0.00,,---,0.00,VWS V14.01,2013-01-17 10:58:00,
2013-01-17 04:03:00,8.6,-4.2,30.42,SW,226,0.0,0.0,55,0.00,,---,0.00,VWS V14.01,2013-01-17 11:03:00,
2013-01-17 04:08:00,8.6,-4.2,30.42,SW,227,0.0,0.0,55,0.00,,---,0.00,VWS V14.01,2013-01-17 11:08:00,
2013-01-17 04:13:00,8.6,-4.2,30.42,SSE,164,0.0,0.0,55,0.00,,---,0.00,VWS V14.01,2013-01-17 11:13:00,
2013-01-17 04:18:00,7.9,-4.9,30.42,SSE,164,0.0,0.0,55,0.00,,---,0.00,VWS V14.01,2013-01-17 11:18:00,
2013-01-17 04:23:00,7.7,-5.1,30.42,SSE,164,0.0,0.0,55,0.00,,---,0.00,VWS V14.01,2013-01-17 11:23:00,
2013-01-17 04:28:00,7.3,-5.4,30.42,SSE,164,0.0,0.0,55,0.00,,---,0.00,VWS V14.01,2013-01-17 11:28:00,
2013-01-17 04:33:00,7.2,-5.6,30.42,SSE,164,0.0,0.0,55,0.00,,---,0.00,VWS V14.01,2013-01-17 11:33:00,
2013-01-17 04:38:00,7.0,-5.8,30.42,SSE,164,0.0,0.0,55,0.00,,---,0.00,VWS V14.01,2013-01-17 11:38:00,
2013-01-17 04:43:00,6.8,-5.9,30.42,SSE,164,0.0,0.0,55,0.00,,---,0.00,VWS V14.01,2013-01-17 11:43:00,
2013-01-17 04:48:00,7.0,-5.8,30.42,SSE,164,0.0,0.0,55,0.00,,---,0.00,VWS V14.01,2013-01-17 11:48:00,
2013-01-17 04:53:00,7.5,-5.3,30.42,SSE,166,0.0,0.0,55,0.00,,---,0.00,VWS V14.01,2013-01-17 11:53:00,
2013-01-17 04:58:00,7.3,-5.4,30.42,SSE,160,0.0,0.0,55,0.00,,---,0.00,VWS V14.01,2013-01-17 11:58:00,
2013-01-17 05:03:00,7.7,-5.1,30.42,SSE,160,0.0,0.0,55,0.00,,---,0.00,VWS V14.01,2013-01-17 12:03:00,
2013-01-17 05:08:00,8.1,-4.8,30.42,South,178,0.0,0.0,55,0.00,,---,0.00,VWS V14.01,2013-01-17 12:08:00,
2013-01-17 05:13:00,8.6,-4.2,30.42,South,178,0.0,0.0,55,0.00,,---,0.00,VWS V14.01,2013-01-17 12:13:00,
2013-01-17 05:18:00,8.8,-4.1,30.42,South,178,0.0,0.0,55,0.00,,---,0.00,VWS V14.01,2013-01-17 12:18:00,
2013-01-17 05:23:00,8.1,-4.8,30.39,South,177,0.0,0.0,55,0.00,,---,0.00,VWS V14.01,2013-01-17 12:23:00,
2013-01-17 05:28:00,7.5,-5.3,30.39,SE,137,0.0,0.0,55,0.00,,---,0.00,VWS V14.01,2013-01-17 12:28:00,
2013-01-17 05:33:00,7.2,-5.6,30.39,SE,137,0.0,0.0,55,0.00,,---,0.00,VWS V14.01,2013-01-17 12:33:00,
2013-01-17 05:38:00,7.0,-5.8,30.39,SE,137,0.0,0.0,55,0.00,,---,0.00,VWS V14.01,2013-01-17 12:38:00,
2013-01-17 05:43:00,7.0,-5.8,30.39,SE,137,0.0,0.0,55,0.00,,---,0.00,VWS V14.01,2013-01-17 12:43:00,
2013-01-17 05:48:00,6.8,-5.9,30.39,SE,137,0.0,0.0,55,0.00,,---,0.00,VWS V14.01,2013-01-17 12:48:00,
2013-01-17 05:53:00,7.0,-5.8,30.39,SE,137,0.0,0.0,55,0.00,,---,0.00,VWS V14.01,2013-01-17 12:53:00,
2013-01-17 05:58:00,6.8,-5.9,30.39,ESE,119,0.0,0.0,55,0.00,,---,0.00,VWS V14.01,2013-01-17 12:58:00,
2013-01-17 06:03:00,6.8,-5.9,30.39,East,84,0.0,0.0,55,0.00,,---,0.00,VWS V14.01,2013-01-17 13:03:00,
2013-01-17 06:08:00,7.0,-5.8,30.39,NE,46,0.0,0.0,55,0.00,,---,0.00,VWS V14.01,2013-01-17 13:08:00,
2013-01-17 06:13:00,7.2,-5.6,30.39,NE,46,0.0,0.0,55,0.00,,---,0.00,VWS V14.01,2013-01-17 13:13:00,
2013-01-17 06:18:00,7.2,-5.6,30.39,NE,46,0.0,0.0,55,0.00,,---,0.00,VWS V14.01,2013-01-17 13:18:00,
2013-01-17 06:24:00,7.0,-5.8,30.39,NE,46,0.0,0.0,55,0.00,,---,0.00,VWS V14.01,2013-01-17 13:24:00,
2013-01-17 06:29:00,6.8,-5.9,30.39,East,83,0.0,2.2,55,0.00,,---,0.00,VWS V14.01,2013-01-17 13:29:00,
2013-01-17 06:34:00,6.6,-6.1,30.39,East,83,0.0,0.0,55,0.00,,---,0.00,VWS V14.01,2013-01-17 13:34:00,
2013-01-17 06:39:00,6.4,-6.3,30.39,East,83,0.0,0.0,55,0.00,,---,0.00,VWS V14.01,2013-01-17 13:39:00,
2013-01-17 06:44:00,6.8,-5.9,30.39,East,83,0.0,0.0,55,0.00,,---,0.00,VWS V14.01,2013-01-17 13:44:00,
2013-01-17 06:49:00,6.3,-6.4,30.39,East,83,0.0,0.0,55,0.00,,---,0.00,VWS V14.01,2013-01-17 13:49:00,
2013-01-17 06:54:00,6.1,-6.6,30.42,East,83,0.0,0.0,55,0.00,,---,0.00,VWS V14.01,2013-01-17 13:54:00,
2013-01-17 06:59:00,6.3,-6.4,30.42,East,83,0.0,0.0,55,0.00,,---,0.00,VWS V14.01,2013-01-17 13:59:00,
2013-01-17 07:04:00,6.1,-6.6,30.42,East,83,0.0,0.0,55,0.00,,---,0.00,VWS V14.01,2013-01-17 14:04:00,
2013-01-17 07:09:00,5.9,-6.8,30.42,East,83,0.0,0.0,55,0.00,,---,0.00,VWS V14.01,2013-01-17 14:09:00,
2013-01-17 07:14:00,5.5,-7.1,30.42,East,83,0.0,0.0,55,0.00,,---,0.00,VWS V14.01,2013-01-17 14:14:00,
2013-01-17 07:19:00,5.5,-7.1,30.42,East,83,0.0,0.0,55,0.00,,---,0.00,VWS V14.01,2013-01-17 14:19:00,
2013-01-17 07:24:00,5.5,-7.1,30.42,East,83,0.0,0.0,55,0.00,,---,0.00,VWS V14.01,2013-01-17 14:24:00,
2013-01-17 07:29:00,5.5,-7.1,30.42,East,83,0.0,0.0,55,0.00,,---,0.00,VWS V14.01,2013-01-17 14:29:00,
2013-01-17 07:34:00,5.9,-6.8,30.42,East,83,0.0,0.0,55,0.00,,---,0.00,VWS V14.01,2013-01-17 14:34:00,
2013-01-17 07:39:00,6.1,-6.6,30.42,East,83,0.0,0.0,55,0.00,,---,0.00,VWS V14.01,2013-01-17 14:39:00,
2013-01-17 07:44:00,6.1,-6.6,30.42,East,83,0.0,0.0,55,0.00,,---,0.00,VWS V14.01,2013-01-17 14:44:00,
2013-01-17 07:49:00,6.3,-6.4,30.42,East,83,0.0,0.0,55,0.00,,---,0.00,VWS V14.01,2013-01-17 14:49:00,
2013-01-17 07:54:00,6.1,-6.6,30.42,East,83,0.0,0.0,55,0.00,,---,0.00,VWS V14.01,2013-01-17 14:54:00,
2013-01-17 07:59:00,5.9,-6.8,30.42,East,83,0.0,0.0,55,0.00,,---,0.00,VWS V14.01,2013-01-17 14:59:00,
2013-01-17 08:04:00,6.1,-6.6,30.42,East,83,0.0,0.0,55,0.00,,---,0.00,VWS V14.01,2013-01-17 15:04:00,
2013-01-17 08:09:00,6.6,-6.1,30.42,East,83,0.0,0.0,55,0.00,,---,0.00,VWS V14.01,2013-01-17 15:09:00,
2013-01-17 08:14:00,6.8,-5.9,30.42,East,83,0.0,0.0,55,0.00,,---,0.00,VWS V14.01,2013-01-17 15:14:00,
2013-01-17 08:19:00,6.8,-5.9,30.42,East,83,0.0,0.0,55,0.00,,---,0.00,VWS V14.01,2013-01-17 15:19:00,
2013-01-17 08:24:00,6.8,-5.9,30.42,East,83,0.0,0.0,55,0.00,,---,0.00,VWS V14.01,2013-01-17 15:24:00,
2013-01-17 08:29:00,6.8,-5.9,30.42,East,83,0.0,0.0,55,0.00,,---,0.00,VWS V14.01,2013-01-17 15:29:00,
2013-01-17 08:34:00,7.2,-5.6,30.42,East,83,0.0,0.0,55,0.00,,---,0.00,VWS V14.01,2013-01-17 15:34:00,
2013-01-17 08:39:00,7.5,-5.3,30.42,East,83,0.0,0.0,55,0.00,,---,0.00,VWS V14.01,2013-01-17 15:39:00,
2013-01-17 08:44:00,8.1,-4.8,30.42,East,83,0.0,0.0,55,0.00,,---,0.00,VWS V14.01,2013-01-17 15:44:00,
2013-01-17 08:49:00,8.1,-4.8,30.42,East,83,0.0,0.0,55,0.00,,---,0.00,VWS V14.01,2013-01-17 15:49:00,
2013-01-17 08:54:00,8.6,-4.2,30.42,East,83,0.0,0.0,55,0.00,,---,0.00,VWS V14.01,2013-01-17 15:54:00,
2013-01-17 08:59:00,10.2,-2.7,30.42,East,83,0.0,0.0,55,0.00,,---,0.00,VWS V14.01,2013-01-17 15:59:00,
2013-01-17 09:04:00,11.8,-1.2,30.42,East,83,0.0,0.0,55,0.00,,---,0.00,VWS V14.01,2013-01-17 16:04:00,
2013-01-17 09:09:00,12.9,-0.2,30.42,East,83,0.0,0.0,55,0.00,,---,0.00,VWS V14.01,2013-01-17 16:09:00,
2013-01-17 09:14:00,13.8,0.6,30.42,East,83,0.0,0.0,55,0.00,,---,0.00,VWS V14.01,2013-01-17 16:14:00,
2013-01-17 09:19:00,14.2,3.2,30.42,East,83,0.0,0.0,61,0.00,,---,0.00,VWS V14.01,2013-01-17 16:19:00,
2013-01-17 09:24:00,15.1,4.4,30.42,East,83,0.0,0.0,62,0.00,,---,0.00,VWS V14.01,2013-01-17 16:24:00,
2013-01-17 09:29:00,15.3,4.2,30.42,East,83,0.0,0.0,61,0.00,,---,0.00,VWS V14.01,2013-01-17 16:29:00,
2013-01-17 09:34:00,13.8,2.2,30.42,East,83,0.0,0.0,59,0.00,,---,0.00,VWS V14.01,2013-01-17 16:34:00,
2013-01-17 09:39:00,13.3,1.6,30.42,ENE,67,0.0,0.0,59,0.00,,---,0.00,VWS V14.01,2013-01-17 16:39:00,
2013-01-17 09:44:00,12.7,1.1,30.42,NE,55,0.0,0.0,59,0.00,,---,0.00,VWS V14.01,2013-01-17 16:44:00,
2013-01-17 09:49:00,12.2,0.6,30.42,North,10,0.0,0.0,59,0.00,,---,0.00,VWS V14.01,2013-01-17 16:49:00,
2013-01-17 09:54:00,12.2,0.6,30.42,NNE,13,0.0,0.0,59,0.00,,---,0.00,VWS V14.01,2013-01-17 16:54:00,
2013-01-17 09:59:00,11.7,0.1,30.42,North,6,0.0,3.6,59,0.00,,---,0.00,VWS V14.01,2013-01-17 16:59:00,
2013-01-17 10:04:00,10.9,-0.6,30.42,NNW,344,0.0,3.1,59,0.00,,---,0.00,VWS V14.01,2013-01-17 17:04:00,
2013-01-17 10:09:00,10.4,-1.1,30.42,North,8,0.0,3.6,59,0.00,,---,0.00,VWS V14.01,2013-01-17 17:09:00,
2013-01-17 10:14:00,10.0,-1.4,30.42,North,8,0.0,3.6,59,0.00,,---,0.00,VWS V14.01,2013-01-17 17:14:00,
2013-01-17 10:19:00,10.4,-1.1,30.42,North,10,0.0,0.0,59,0.00,,---,0.00,VWS V14.01,2013-01-17 17:19:00,
2013-01-17 10:24:00,11.3,-0.2,30.42,North,10,0.0,0.0,59,0.00,,---,0.00,VWS V14.01,2013-01-17 17:24:00,
2013-01-17 10:29:00,13.8,2.2,30.42,North,10,0.0,0.0,59,0.00,,---,0.00,VWS V14.01,2013-01-17 17:29:00,
2013-01-17 10:34:00,17.1,7.0,30.42,North,11,0.0,0.0,64,0.00,,---,0.00,VWS V14.01,2013-01-17 17:34:00,
2013-01-17 10:39:00,18.9,8.4,30.42,NNE,19,0.0,0.0,63,0.00,,---,0.00,VWS V14.01,2013-01-17 17:39:00,
2013-01-17 10:44:00,20.3,9.4,30.42,NNE,19,0.0,0.0,62,0.00,,---,0.00,VWS V14.01,2013-01-17 17:44:00,
2013-01-17 10:49:00,20.3,9.0,30.42,NNE,19,0.0,0.0,61,0.00,,---,0.00,VWS V14.01,2013-01-17 17:49:00,
2013-01-17 10:54:00,20.7,9.0,30.42,NNE,19,0.0,0.0,60,0.00,,---,0.00,VWS V14.01,2013-01-17 17:54:00,
2013-01-17 10:59:00,20.3,7.5,30.42,NNE,19,0.0,0.0,57,0.00,,---,0.00,VWS V14.01,2013-01-17 17:59:00,
2013-01-17 11:04:00,19.2,4.9,30.42,NNW,343,0.0,0.0,53,0.00,,---,0.00,VWS V14.01,2013-01-17 18:04:00,
2013-01-17 11:09:00,19.6,6.1,30.42,NE,37,0.0,0.0,55,0.00,,---,0.00,VWS V14.01,2013-01-17 18:09:00,
2013-01-17 11:14:00,21.6,8.7,30.42,NE,37,0.0,0.0,57,0.00,,---,0.00,VWS V14.01,2013-01-17 18:14:00,
2013-01-17 11:19:00,22.6,9.3,30.42,NE,37,0.0,0.0,56,0.00,,---,0.00,VWS V14.01,2013-01-17 18:19:00,
2013-01-17 11:24:00,21.9,6.6,30.42,NNE,21,0.0,0.0,51,0.00,,---,0.00,VWS V14.01,2013-01-17 18:24:00,
2013-01-17 11:29:00,23.2,8.6,30.42,NE,54,0.0,0.0,53,0.00,,---,0.00,VWS V14.01,2013-01-17 18:29:00,
2013-01-17 11:34:00,24.3,10.0,30.42,East,93,0.0,0.0,54,0.00,,---,0.00,VWS V14.01,2013-01-17 18:34:00,
2013-01-17 11:39:00,24.6,10.4,30.39,East,93,0.0,0.0,54,0.00,,---,0.00,VWS V14.01,2013-01-17 18:39:00,
2013-01-17 11:44:00,25.3,11.4,30.39,East,93,0.0,0.0,55,0.00,,---,0.00,VWS V14.01,2013-01-17 18:44:00,
2013-01-17 11:49:00,25.3,11.4,30.39,ENE,73,0.0,0.0,55,0.00,,---,0.00,VWS V14.01,2013-01-17 18:49:00,
2013-01-17 11:54:00,24.4,8.0,30.39,NE,42,0.0,0.0,49,0.00,,---,0.00,VWS V14.01,2013-01-17 18:54:00,
2013-01-17 11:59:00,23.4,5.7,30.39,North,2,2.7,3.6,46,0.00,,---,0.00,VWS V14.01,2013-01-17 18:59:00,
2013-01-17 12:04:00,22.3,4.2,30.39,NNE,16,2.2,4.9,45,0.00,,---,0.00,VWS V14.01,2013-01-17 19:04:00,
2013-01-17 12:09:00,22.1,4.5,30.39,North,11,0.0,4.9,46,0.00,,---,0.00,VWS V14.01,2013-01-17 19:09:00,
2013-01-17 12:14:00,22.1,4.5,30.39,North,11,0.0,4.9,46,0.00,,---,0.00,VWS V14.01,2013-01-17 19:14:00,
2013-01-17 12:19:00,22.8,5.2,30.39,NNE,13,0.0,0.0,46,0.00,,---,0.00,VWS V14.01,2013-01-17 19:19:00,
2013-01-17 12:24:00,23.4,5.7,30.39,North,0,2.2,3.6,46,0.00,,---,0.00,VWS V14.01,2013-01-17 19:24:00,
2013-01-17 12:29:00,23.7,6.0,30.39,NNE,12,0.0,3.6,46,0.00,,---,0.00,VWS V14.01,2013-01-17 19:29:00,
2013-01-17 12:34:00,25.3,7.9,30.39,NE,45,0.0,0.0,47,0.00,,---,0.00,VWS V14.01,2013-01-17 19:34:00,
2013-01-17 12:39:00,25.3,6.5,30.39,North,11,4.0,4.0,44,0.00,,---,0.00,VWS V14.01,2013-01-17 19:39:00,
2013-01-17 12:44:00,25.0,6.2,30.39,North,4,3.1,4.0,44,0.00,,---,0.00,VWS V14.01,2013-01-17 19:44:00,
2013-01-17 12:49:00,25.5,7.2,30.39,North,6,3.1,3.1,45,0.00,,---,0.00,VWS V14.01,2013-01-17 19:49:00,
2013-01-17 12:54:00,25.7,6.8,30.36,North,7,3.6,4.0,44,0.00,,---,0.00,VWS V14.01,2013-01-17 19:54:00,
2013-01-17 12:59:00,25.9,7.0,30.36,North,7,2.7,4.0,44,0.00,,---,0.00,VWS V14.01,2013-01-17 19:59:00,
2013-01-17 13:04:00,26.1,7.2,30.36,North,1,3.1,4.0,44,0.00,,---,0.00,VWS V14.01,2013-01-17 20:04:00,
2013-01-17 13:09:00,26.6,8.1,30.36,NE,34,0.0,4.0,45,0.00,,---,0.00,VWS V14.01,2013-01-17 20:09:00,
2013-01-17 13:14:00,28.0,8.9,30.36,East,101,2.7,4.0,44,0.00,,---,0.00,VWS V14.01,2013-01-17 20:14:00,
2013-01-17 13:19:00,30.0,10.8,30.36,East,101,0.0,2.2,44,0.00,,---,0.00,VWS V14.01,2013-01-17 20:19:00,
2013-01-17 13:24:00,30.2,9.9,30.36,ENE,69,0.0,2.2,42,0.00,,---,0.00,VWS V14.01,2013-01-17 20:24:00,
2013-01-17 13:29:00,30.7,9.8,30.36,ENE,65,0.0,2.2,41,0.00,,---,0.00,VWS V14.01,2013-01-17 20:29:00,
2013-01-17 13:34:00,30.7,9.8,30.36,NE,37,0.0,0.0,41,0.00,,---,0.00,VWS V14.01,2013-01-17 20:34:00,
2013-01-17 13:39:00,31.5,10.5,30.36,NE,37,0.0,0.0,41,0.00,,---,0.00,VWS V14.01,2013-01-17 20:39:00,
2013-01-17 13:44:00,31.6,10.6,30.36,NNE,33,0.0,0.0,41,0.00,,---,0.00,VWS V14.01,2013-01-17 20:44:00,
2013-01-17 13:49:00,30.9,10.0,30.36,NNE,20,0.0,0.0,41,0.00,,---,0.00,VWS V14.01,2013-01-17 20:49:00,
2013-01-17 13:54:00,30.2,9.4,30.33,NNE,13,0.0,0.0,41,0.00,,---,0.00,VWS V14.01,2013-01-17 20:54:00,
2013-01-17 13:59:00,30.6,9.7,30.33,NNE,17,0.0,0.0,41,0.00,,---,0.00,VWS V14.01,2013-01-17 20:59:00,
2013-01-17 14:04:00,30.4,9.5,30.33,NNE,13,0.0,0.0,41,0.00,,---,0.00,VWS V14.01,2013-01-17 21:04:00,
2013-01-17 14:09:00,30.2,9.4,30.33,NE,35,0.0,0.0,41,0.00,,---,0.00,VWS V14.01,2013-01-17 21:09:00,
2013-01-17 14:14:00,29.8,9.0,30.33,NE,43,2.7,4.0,41,0.00,,---,0.00,VWS V14.01,2013-01-17 21:14:00,
2013-01-17 14:19:00,29.8,9.0,30.33,North,8,0.0,3.1,41,0.00,,---,0.00,VWS V14.01,2013-01-17 21:19:00,
2013-01-17 14:24:00,30.0,9.2,30.33,North,2,0.0,3.1,41,0.00,,---,0.00,VWS V14.01,2013-01-17 21:24:00,
2013-01-17 14:29:00,30.2,9.4,30.33,North,2,0.0,3.1,41,0.00,,---,0.00,VWS V14.01,2013-01-17 21:29:00,
2013-01-17 14:34:00,30.4,9.5,30.33,North,2,0.0,0.0,41,0.00,,---,0.00,VWS V14.01,2013-01-17 21:34:00,
2013-01-17 14:39:00,31.1,10.2,30.33,North,2,0.0,0.0,41,0.00,,---,0.00,VWS V14.01,2013-01-17 21:39:00,
2013-01-17 14:44:00,31.1,9.6,30.33,North,4,0.0,0.0,40,0.00,,---,0.00,VWS V14.01,2013-01-17 21:44:00,
2013-01-17 14:49:00,31.8,10.8,30.33,NE,41,0.0,0.0,41,0.00,,---,0.00,VWS V14.01,2013-01-17 21:49:00,
2013-01-17 14:54:00,33.1,12.0,30.33,ESE,123,0.0,0.0,41,0.00,,---,0.00,VWS V14.01,2013-01-17 21:54:00,
2013-01-17 14:59:00,33.6,12.4,30.33,ESE,123,0.0,0.0,41,0.00,,---,0.00,VWS V14.01,2013-01-17 21:59:00,
2013-01-17 15:04:00,34.2,12.9,30.33,ESE,123,0.0,0.0,41,0.00,,---,0.00,VWS V14.01,2013-01-17 22:04:00,
2013-01-17 15:09:00,34.5,13.3,30.30,ESE,116,0.0,0.0,41,0.00,,---,0.00,VWS V14.01,2013-01-17 22:09:00,
2013-01-17 15:14:00,34.3,13.1,30.30,East,93,0.0,0.0,41,0.00,,---,0.00,VWS V14.01,2013-01-17 22:14:00,
2013-01-17 15:19:00,33.8,12.1,30.30,East,93,0.0,0.0,40,0.00,,---,0.00,VWS V14.01,2013-01-17 22:19:00,
2013-01-17 15:24:00,33.6,11.9,30.30,East,92,0.0,0.0,40,0.00,,---,0.00,VWS V14.01,2013-01-17 22:24:00,
2013-01-17 15:29:00,34.2,12.4,30.30,East,92,0.0,0.0,40,0.00,,---,0.00,VWS V14.01,2013-01-17 22:29:00,
2013-01-17 15:34:00,34.9,13.6,30.30,East,92,0.0,0.0,41,0.00,,---,0.00,VWS V14.01,2013-01-17 22:34:00,
2013-01-17 15:39:00,35.1,13.8,30.30,East,92,0.0,0.0,41,0.00,,---,0.00,VWS V14.01,2013-01-17 22:39:00,
2013-01-17 15:44:00,33.6,11.9,30.30,East,92,0.0,0.0,40,0.00,,---,0.00,VWS V14.01,2013-01-17 22:44:00,
2013-01-17 15:49:00,32.5,10.9,30.30,East,92,0.0,0.0,40,0.00,,---,0.00,VWS V14.01,2013-01-17 22:49:00,
2013-01-17 15:54:00,32.9,11.2,30.30,East,92,0.0,0.0,40,0.00,,---,0.00,VWS V14.01,2013-01-17 22:54:00,
2013-01-17 15:59:00,30.9,9.4,30.30,North,2,0.0,0.0,40,0.00,,---,0.00,VWS V14.01,2013-01-17 22:59:00,
2013-01-17 16:04:00,29.5,8.7,30.30,North,0,2.7,3.6,41,0.00,,---,0.00,VWS V14.01,2013-01-17 23:04:00,
2013-01-17 16:09:00,28.0,7.9,30.30,North,3,2.7,5.4,42,0.00,,---,0.00,VWS V14.01,2013-01-17 23:09:00,
2013-01-17 16:14:00,27.0,6.9,30.30,NNE,15,2.7,7.6,42,0.00,,---,0.00,VWS V14.01,2013-01-17 23:14:00,
2013-01-17 16:19:00,26.1,6.6,30.30,NNE,15,2.7,3.6,43,0.00,,---,0.00,VWS V14.01,2013-01-17 23:19:00,
2013-01-17 16:24:00,25.7,6.3,30.30,NNE,15,0.0,3.6,43,0.00,,---,0.00,VWS V14.01,2013-01-17 23:24:00,
2013-01-17 16:29:00,25.0,6.2,30.30,North,6,0.0,3.6,44,0.00,,---,0.00,VWS V14.01,2013-01-17 23:29:00,
2013-01-17 16:34:00,24.1,5.8,30.30,North,10,0.0,0.0,45,0.00,,---,0.00,VWS V14.01,2013-01-17 23:34:00,
2013-01-17 16:39:00,23.5,5.3,30.30,North,1,0.0,0.0,45,0.00,,---,0.00,VWS V14.01,2013-01-17 23:39:00,
2013-01-17 16:44:00,23.2,5.0,30.30,North,1,0.0,0.0,45,0.00,,---,0.00,VWS V14.01,2013-01-17 23:44:00,
2013-01-17 16:49:00,23.0,4.8,30.30,North,0,0.0,0.0,45,0.00,,---,0.00,VWS V14.01,2013-01-17 23:49:00,
2013-01-17 16:54:00,22.6,4.5,30.30,North,1,0.0,0.0,45,0.00,,---,0.00,VWS V14.01,2013-01-17 23:54:00,
2013-01-17 16:59:00,22.1,4.0,30.30,SW,234,0.0,0.0,45,0.00,,---,0.00,VWS V14.01,2013-01-17 23:59:00,
2013-01-17 17:04:00,21.7,4.2,30.30,ENE,58,0.0,0.0,46,0.00,,---,0.00,VWS V14.01,2013-01-18 00:04:00,
2013-01-17 17:09:00,21.2,4.1,30.30,WNW,284,0.0,3.6,47,0.00,,---,0.00,VWS V14.01,2013-01-18 00:09:00,
2013-01-17 17:14:00,20.8,3.3,30.30,SW,219,4.9,4.9,46,0.00,,---,0.00,VWS V14.01,2013-01-18 00:14:00,
2013-01-17 17:19:00,20.3,2.8,30.30,SW,229,0.0,3.1,46,0.00,,---,0.00,VWS V14.01,2013-01-18 00:19:00,
2013-01-17 17:24:00,20.1,3.1,30.30,SW,229,0.0,3.1,47,0.00,,---,0.00,VWS V14.01,2013-01-18 00:24:00,
2013-01-17 17:29:00,19.9,3.0,30.30,SW,229,0.0,3.1,47,0.00,,---,0.00,VWS V14.01,2013-01-18 00:29:00,
2013-01-17 17:34:00,19.9,3.0,30.30,SW,231,0.0,0.0,47,0.00,,---,0.00,VWS V14.01,2013-01-18 00:34:00,
2013-01-17 17:39:00,19.9,3.0,30.30,SW,231,0.0,0.0,47,0.00,,---,0.00,VWS V14.01,2013-01-18 00:39:00,
2013-01-17 17:44:00,19.8,2.8,30.30,WSW,249,2.2,3.6,47,0.00,,---,0.00,VWS V14.01,2013-01-18 00:44:00,
2013-01-17 17:49:00,19.8,2.8,30.30,WSW,249,0.0,0.0,47,0.00,,---,0.00,VWS V14.01,2013-01-18 00:49:00,
2013-01-17 17:54:00,19.8,3.3,30.30,WSW,249,0.0,0.0,48,0.00,,---,0.00,VWS V14.01,2013-01-18 00:54:00,
2013-01-17 17:59:00,19.4,2.9,30.30,West,279,3.1,3.1,48,0.00,,---,0.00,VWS V14.01,2013-01-18 00:59:00,
2013-01-17 18:04:00,19.2,3.2,30.30,South,177,0.0,2.2,49,0.00,,---,0.00,VWS V14.01,2013-01-18 01:04:00,
2013-01-17 18:09:00,19.2,3.2,30.27,SSW,193,0.0,2.2,49,0.00,,---,0.00,VWS V14.01,2013-01-18 01:09:00,
2013-01-17 18:14:00,18.9,2.9,30.27,West,281,2.2,4.9,49,0.00,,---,0.00,VWS V14.01,2013-01-18 01:14:00,
2013-01-17 18:19:00,18.7,3.6,30.27,WSW,240,0.0,0.0,51,0.00,,---,0.00,VWS V14.01,2013-01-18 01:19:00,
2013-01-17 18:24:00,18.5,3.4,30.27,SW,234,2.7,3.6,51,0.00,,---,0.00,VWS V14.01,2013-01-18 01:24:00,
2013-01-17 18:29:00,18.7,4.0,30.27,SSW,195,0.0,4.0,52,0.00,,---,0.00,VWS V14.01,2013-01-18 01:29:00,
2013-01-17 18:34:00,18.7,4.4,30.27,ESE,106,0.0,4.9,53,0.00,,---,0.00,VWS V14.01,2013-01-18 01:34:00,
2013-01-17 18:39:00,19.0,4.7,30.27,West,259,4.0,4.9,53,0.00,,---,0.00,VWS V14.01,2013-01-18 01:39:00,
2013-01-17 18:44:00,19.6,5.2,30.27,SE,137,0.0,4.9,53,0.00,,---,0.00,VWS V14.01,2013-01-18 01:44:00,
2013-01-17 18:49:00,19.8,5.8,30.27,WNW,300,2.7,5.4,54,0.00,,---,0.00,VWS V14.01,2013-01-18 01:49:00,
2013-01-17 18:54:00,19.8,6.2,30.27,WNW,300,0.0,5.4,55,0.00,,---,0.00,VWS V14.01,2013-01-18 01:54:00,
2013-01-17 18:59:00,20.3,7.9,30.27,North,10,3.6,5.4,58,0.00,,---,0.00,VWS V14.01,2013-01-18 01:59:00,
2013-01-17 19:04:00,20.1,7.7,30.27,North,8,0.0,3.1,58,0.00,,---,0.00,VWS V14.01,2013-01-18 02:04:00,
2013-01-17 19:09:00,19.9,7.2,30.27,North,9,0.0,3.1,57,0.00,,---,0.00,VWS V14.01,2013-01-18 02:09:00,
2013-01-17 19:14:00,19.8,7.4,30.27,North,8,0.0,3.6,58,0.00,,---,0.00,VWS V14.01,2013-01-18 02:14:00,
2013-01-17 19:19:00,19.9,7.6,30.27,WNW,297,0.0,0.0,58,0.00,,---,0.00,VWS V14.01,2013-01-18 02:19:00,
2013-01-17 19:24:00,19.4,6.7,30.27,ENE,71,0.0,0.0,57,0.00,,---,0.00,VWS V14.01,2013-01-18 02:24:00,
2013-01-17 19:29:00,18.7,6.0,30.27,NNE,28,0.0,0.0,57,0.00,,---,0.00,VWS V14.01,2013-01-18 02:29:00,
2013-01-17 19:34:00,17.8,5.1,30.27,NNE,28,0.0,0.0,57,0.00,,---,0.00,VWS V14.01,2013-01-18 02:34:00,
2013-01-17 19:39:00,17.1,4.5,30.27,NNE,28,0.0,0.0,57,0.00,,---,0.00,VWS V14.01,2013-01-18 02:39:00,
2013-01-17 19:44:00,16.9,4.3,30.27,WNW,298,2.2,2.2,57,0.00,,---,0.00,VWS V14.01,2013-01-18 02:44:00,
2013-01-17 19:49:00,16.5,4.0,30.27,WSW,247,0.0,3.6,57,0.00,,---,0.00,VWS V14.01,2013-01-18 02:49:00,
2013-01-17 19:54:00,16.2,3.6,30.24,SE,144,0.0,4.0,57,0.00,,---,0.00,VWS V14.01,2013-01-18 02:54:00,
2013-01-17 19:59:00,16.0,3.5,30.24,SSW,196,4.0,4.0,57,0.00,,---,0.00,VWS V14.01,2013-01-18 02:59:00,
2013-01-17 20:04:00,15.8,3.3,30.24,SW,229,0.0,3.1,57,0.00,,---,0.00,VWS V14.01,2013-01-18 03:04:00,
2013-01-17 20:09:00,15.8,3.7,30.24,SW,229,0.0,3.1,58,0.00,,---,0.00,VWS V14.01,2013-01-18 03:09:00,
2013-01-17 20:14:00,15.6,3.5,30.24,SE,139,0.0,3.1,58,0.00,,---,0.00,VWS V14.01,2013-01-18 03:14:00,
2013-01-17 20:19:00,15.3,3.2,30.24,SW,228,2.7,4.0,58,0.00,,---,0.00,VWS V14.01,2013-01-18 03:19:00,
2013-01-17 20:24:00,15.3,3.2,30.24,South,172,3.1,4.0,58,0.00,,---,0.00,VWS V14.01,2013-01-18 03:24:00,
2013-01-17 20:29:00,15.3,3.2,30.24,South,172,0.0,4.0,58,0.00,,---,0.00,VWS V14.01,2013-01-18 03:29:00,
2013-01-17 20:34:00,15.3,3.5,30.24,WSW,257,0.0,0.0,59,0.00,,---,0.00,VWS V14.01,2013-01-18 03:34:00,
2013-01-17 20:39:00,15.3,3.5,30.24,WSW,247,2.7,4.0,59,0.00,,---,0.00,VWS V14.01,2013-01-18 03:39:00,
2013-01-17 20:44:00,16.0,4.9,30.24,WNW,303,0.0,4.0,61,0.00,,---,0.00,VWS V14.01,2013-01-18 03:44:00,
2013-01-17 20:49:00,16.5,5.8,30.24,North,0,3.6,3.6,62,0.00,,---,0.00,VWS V14.01,2013-01-18 03:49:00,
2013-01-17 20:54:00,17.1,7.0,30.24,NW,308,0.0,5.4,64,0.00,,---,0.00,VWS V14.01,2013-01-18 03:54:00,
2013-01-17 20:59:00,17.8,8.0,30.24,WNW,290,2.2,5.4,65,0.00,,---,0.00,VWS V14.01,2013-01-18 03:59:00,
2013-01-17 21:04:00,19.2,10.1,30.24,WNW,295,2.7,2.7,67,0.00,,---,0.00,VWS V14.01,2013-01-18 04:04:00,
2013-01-17 21:09:00,19.8,10.6,30.24,North,357,0.0,3.1,67,0.00,,---,0.00,VWS V14.01,2013-01-18 04:09:00,
2013-01-17 21:14:00,19.8,10.3,30.24,NW,312,0.0,6.3,66,0.00,,---,0.00,VWS V14.01,2013-01-18 04:14:00,
2013-01-17 21:19:00,19.9,10.4,30.24,NNE,12,2.2,3.6,66,0.00,,---,0.00,VWS V14.01,2013-01-18 04:19:00,
2013-01-17 21:24:00,19.8,9.9,30.24,North,357,5.8,6.3,65,0.00,,---,0.00,VWS V14.01,2013-01-18 04:24:00,
2013-01-17 21:29:00,20.1,9.9,30.24,North,9,5.8,6.3,64,0.00,,---,0.00,VWS V14.01,2013-01-18 04:29:00,
2013-01-17 21:34:00,19.4,8.2,30.24,North,7,5.8,8.1,61,0.00,,---,0.00,VWS V14.01,2013-01-18 04:34:00,
2013-01-17 21:39:00,18.5,6.9,30.24,North,8,3.6,8.1,60,0.00,,---,0.00,VWS V14.01,2013-01-18 04:39:00,
2013-01-17 21:44:00,17.6,6.4,30.24,North,357,3.1,8.1,61,0.00,,---,0.00,VWS V14.01,2013-01-18 04:44:00,
2013-01-17 21:49:00,17.2,6.1,30.24,North,2,0.0,3.6,61,0.00,,---,0.00,VWS V14.01,2013-01-18 04:49:00,
2013-01-17 21:54:00,17.1,6.3,30.27,North,2,2.7,4.0,62,0.00,,---,0.00,VWS V14.01,2013-01-18 04:54:00,
2013-01-17 21:59:00,17.1,6.7,30.27,North,1,0.0,4.0,63,0.00,,---,0.00,VWS V14.01,2013-01-18 04:59:00,
2013-01-17 22:00:00,16.9,6.5,30.27,North,1,0.0,0.0,63,0.00,,---,0.00,VWS V14.01,2013-01-18 05:00:00,
2013-01-17 22:01:00,16.9,6.5,30.27,North,1,0.0,0.0,63,0.00,,---,0.00,VWS V14.01,2013-01-18 05:01:00,
2013-01-17 22:03:00,16.9,6.5,30.27,North,1,0.0,0.0,63,0.00,,---,0.00,VWS V14.01,2013-01-18 05:03:00,
2013-01-17 22:08:00,16.5,5.8,30.27,ENE,57,0.0,0.0,62,0.00,,---,0.00,VWS V14.01,2013-01-18 05:08:00,
2013-01-17 22:13:00,16.0,4.9,30.27,ENE,57,0.0,0.0,61,0.00,,---,0.00,VWS V14.01,2013-01-18 05:13:00,
2013-01-17 22:18:00,15.3,4.2,30.27,ENE,57,0.0,0.0,61,0.00,,---,0.00,VWS V14.01,2013-01-18 05:18:00,
2013-01-17 22:23:00,14.7,3.7,30.27,SE,139,2.7,4.0,61,0.00,,---,0.00,VWS V14.01,2013-01-18 05:23:00,
2013-01-17 22:28:00,14.4,3.4,30.27,SE,132,2.2,4.0,61,0.00,,---,0.00,VWS V14.01,2013-01-18 05:28:00,
2013-01-17 22:33:00,14.4,3.4,30.27,SE,132,2.7,3.1,61,0.00,,---,0.00,VWS V14.01,2013-01-18 05:33:00,
2013-01-17 22:38:00,14.2,3.2,30.27,SSE,167,2.2,3.1,61,0.00,,---,0.00,VWS V14.01,2013-01-18 05:38:00,
2013-01-17 22:43:00,13.8,3.2,30.27,SSE,147,0.0,3.1,62,0.00,,---,0.00,VWS V14.01,2013-01-18 05:43:00,
2013-01-17 22:48:00,13.5,2.9,30.27,South,176,0.0,0.0,62,0.00,,---,0.00,VWS V14.01,2013-01-18 05:48:00,
2013-01-17 22:53:00,13.6,3.0,30.27,SSW,193,0.0,4.0,62,0.00,,---,0.00,VWS V14.01,2013-01-18 05:53:00,
2013-01-17 22:58:00,13.6,3.0,30.24,SSW,193,0.0,4.0,62,0.00,,---,0.00,VWS V14.01,2013-01-18 05:58:00,
2013-01-17 23:03:00,13.6,3.0,30.24,SSW,193,0.0,0.0,62,0.00,,---,0.00,VWS V14.01,2013-01-18 06:03:00,
2013-01-17 23:08:00,13.5,2.9,30.24,SSW,193,0.0,0.0,62,0.00,,---,0.00,VWS V14.01,2013-01-18 06:08:00,
2013-01-17 23:13:00,13.6,3.0,30.24,WNW,301,2.7,2.7,62,0.00,,---,0.00,VWS V14.01,2013-01-18 06:13:00,
2013-01-17 23:18:00,14.4,4.4,30.24,SW,233,3.1,3.6,64,0.00,,---,0.00,VWS V14.01,2013-01-18 06:18:00,
2013-01-17 23:23:00,14.9,4.9,30.24,WSW,238,4.0,4.0,64,0.00,,---,0.00,VWS V14.01,2013-01-18 06:23:00,
2013-01-17 23:28:00,16.5,7.2,30.24,West,265,0.0,4.0,66,0.00,,---,0.00,VWS V14.01,2013-01-18 06:28:00,
2013-01-17 23:33:00,17.6,8.2,30.24,West,265,0.0,0.0,66,0.00,,---,0.00,VWS V14.01,2013-01-18 06:33:00,
2013-01-17 23:38:00,17.6,7.8,30.24,SSE,168,0.0,3.6,65,0.00,,---,0.00,VWS V14.01,2013-01-18 06:38:00,
2013-01-17 23:43:00,17.6,7.5,30.24,SW,224,0.0,3.6,64,0.00,,---,0.00,VWS V14.01,2013-01-18 06:43:00,
2013-01-17 23:48:00,17.6,7.5,30.24,WSW,242,0.0,0.0,64,0.00,,---,0.00,VWS V14.01,2013-01-18 06:48:00,
2013-01-17 23:53:00,17.1,7.0,30.24,WSW,250,0.0,0.0,64,0.00,,---,0.00,VWS V14.01,2013-01-18 06:53:00,
2013-01-17 23:58:00,17.2,7.2,30.24,NNW,341,0.0,3.1,64,0.00,,---,0.00,VWS V14.01,2013-01-18 06:58:00,